Regional Weather Roundup
Issued by NWS

Home | Current Version | Previous Version | Text Only | Print | Product List | Glossary On
Versions: 1 2 3 4 5 6 7 8 9 10 11 12 13 14 15 16 17 18 19 20 21 22 23 24 25 26 27 28 29 30 31 32 33 34 35 36 37 38 39 40 41 42 43 44 45 46 47 48 49 50
000
ASUS43 KTOP 060659
RWRKS

WEATHER ROUNDUP FOR KANSAS
NATIONAL WEATHER SERVICE GOODLAND KS
200 AM CDT MON JUL 06 2015

NOTE:  "FAIR" INDICATES FEW OR NO CLOUDS BELOW 12,000 FEET WITH NO
SIGNIFICANT WEATHER AND/OR OBSTRUCTIONS TO VISIBILITY.

KSZ001>006-013>018-027>032-041>047-060800-
NORTHWEST KANSAS

CITY           SKY/WX    TMP DP  RH WIND       PRES   REMARKS
GOODLAND       CLOUDY    68  63  84 N14       29.91R
HAYS           CLOUDY    81  64  57 S20       29.85R
HILL CITY      CLOUDY    84  63  49 W10       29.86R
RUSSELL        CLOUDY    81  68  64 S23       29.83R
$$

KSZ061>065-074>080-084>089-060800-
SOUTHWEST KANSAS

CITY           SKY/WX    TMP DP  RH WIND       PRES   REMARKS
DODGE CITY     MOCLDY    77  63  61 S18G25    29.89F
ELKHART          N/A     71  57  61 S10         N/A
GARDEN CITY    PTCLDY    76  65  68 S18G26    29.86F
GREAT BEND     MOCLDY    81  66  61 S23       29.87R
LIBERAL        PTCLDY    77  63  61 S14       29.91F
$$

KSZ066>073-081>083-090>101-060800-
SOUTHEAST KANSAS

CITY           SKY/WX    TMP DP  RH WIND       PRES   REMARKS
CHANUTE        MOCLDY    77  73  87 SE7       29.93S
COFFEYVILLE    MOCLDY    78  71  79 S8        29.93R
HUTCHINSON     CLOUDY    82  68  62 S16G26    29.89F
MEDICINE LODGE   N/A     80  68  66 S15       29.89F
NEWTON         CLOUDY    81  64  57 S18G26    29.92F
PARSONS        MOCLDY    77  72  84 S7        29.94S
WICHITA INTL   CLOUDY    81  69  67 S13       29.89F
WICHITA JABRA  MOCLDY    81  69  67 S15G22    29.90F
WINFIELD       MOCLDY    80  69  69 S14       29.92F
$$

KSZ007>012-019>026-033>040-048>060-102>105-060800-
NORTHEAST KANSAS

CITY           SKY/WX    TMP DP  RH WIND       PRES   REMARKS
CONCORDIA      CLOUDY    83  69  62 S24G30    29.84R
EMPORIA        CLOUDY    79  71  76 S13       29.90R
LAWRENCE       CLOUDY    78  70  76 SE8       29.90R
MANHATTAN      CLOUDY    83  72  69 S17       29.85R
OLATHE IND     CLOUDY    75  68  78 S12       29.93R
OLATHE EXE     CLOUDY    73  68  84 S9        29.93R
SALINA         CLOUDY    85  69  58 S20G28    29.86R
TOPEKA BILLARD MOCLDY    82  73  74 S9        29.88R
TOPEKA FORBES  MOCLDY    81  72  74 S10       29.88R
$$


USA.gov is the U.S. government's official web portal to all federal, state and local government web resources and services.